Location: Julian California
(33.0790°N, 116.6010°W)
Time: 11:08:04
(UTC-07:00)

deb Kosmos-1763 - Pass Details

Date: 12 July 2018
Orbit: 484 x 496 km, 74.0° (Epoch: 22 September)

Event Time Altitude Azimuth Distance (km) Brightness Sun altitude
Rises 21:19:27 0° 344° (NNW) 2,586 8.7 -15.3°
Reaches altitude 10° 21:21:35 10° 344° (NNW) 1,701 7.7 -15.6°
Maximum altitude 21:25:21 85° 72° (ENE) 504 4.0 -16.2°
Enters shadow 21:27:01 32° 161° (SSE) 875 4.9 -16.5°
